This is the latest recevied weather packets stored in our database for station/object K7YVO. If no packets are shown the sender has not sent any weather packets the latest 10 day(s).
| Time | Temp. | Humidity | Pressure | Rain* | Wind** | Luminosity | Snow |
|---|---|---|---|---|---|---|---|
| 1777520729 | 17.22° C | 60% | 1021.9 hPa | 0 mm | - | 0 W/m² | - |
| 1777520426 | 17.78° C | 58% | 1021.8 hPa | 0 mm | - | 0 W/m² | - |
| 1777520123 | 18.33° C | 57% | 1021.6 hPa | 0 mm | - | 0 W/m² | - |
| 1777519821 | 18.33° C | 56% | 1021.5 hPa | 0 mm | - | 1 W/m² | - |
| 1777519518 | 18.33° C | 56% | 1021.6 hPa | 0 mm | - | 1 W/m² | - |
| 1777519214 | 18.33° C | 55% | 1021.7 hPa | 0 mm | - | 1 W/m² | - |
| 1777518909 | 18.89° C | 55% | 1021.5 hPa | 0 mm | - | 2 W/m² | - |
| 1777518606 | 18.89° C | 54% | 1021.6 hPa | 0 mm | - | 5 W/m² | - |
| 1777518302 | 18.89° C | 54% | 1021.3 hPa | 0 mm | - | 6 W/m² | - |
| 1777517992 | 18.89° C | 53% | 1021.4 hPa | 0 mm | - | 8 W/m² | - |
| 1777517689 | 19.44° C | 53% | 1021.5 hPa | 0 mm | - | 11 W/m² | - |
| 1777517384 | 19.44° C | 52% | 1021.6 hPa | 0 mm | - | 14 W/m² | - |
| 1777517079 | 20.56° C | 49% | 1021.6 hPa | 0 mm | - | 19 W/m² | - |
| 1777516776 | 21.11° C | 49% | 1021.4 hPa | 0 mm | - | 22 W/m² | - |
| 1777516472 | 21.11° C | 48% | 1021.7 hPa | 0 mm | - | 26 W/m² | - |
| 1777516168 | 21.67° C | 47% | 1021.6 hPa | 0 mm | - | 31 W/m² | - |
| 1777515866 | 21.11° C | 48% | 1021.6 hPa | 0 mm | - | 36 W/m² | - |
| 1777515561 | 21.11° C | 48% | 1021.7 hPa | 0 mm | - | 43 W/m² | - |
| 1777515259 | 21.67° C | 46% | 1021.5 hPa | 0 mm | - | 50 W/m² | - |
| 1777514955 | 21.11° C | 47% | 1021.6 hPa | 0 mm | - | 53 W/m² | - |
| 1777514651 | 21.11° C | 47% | 1021.7 hPa | 0 mm | - | 59 W/m² | - |
| 1777514349 | 21.67° C | 46% | 1021.7 hPa | 0 mm | - | 65 W/m² | - |
| 1777514045 | 21.11° C | 46% | 1021.8 hPa | 0 mm | - | 64 W/m² | - |
| 1777513743 | 21.67° C | 46% | 1021.7 hPa | 0 mm | - | 67 W/m² | - |
| 1777513439 | 21.67° C | 47% | 1021.7 hPa | 0 mm | - | 57 W/m² | - |
* Rain latest hour (hover to see other rain measurements)
** Current wind speed in m/s (hover to see current wind gust speed)